Weather in Kurunegala

Sri Lanka     7°28′53″N   80°22′14″E
В апреле 2022 года жителям России запретили посещать сайт meteo.paraplan.net по решению Генеральной прокуратуры. Аудитория сайта уменьшилась в 10 раз. Владельцы сайта не видят смысла в поддержке погодного сервера в таких условиях. Сайт будет закрыт в октябре.
temp.,
°C
wind,
m/s
gust,
m/s
humid.,
%
clouds,
%
prec.,
mm/h
press.,
hPa
HPBL,
m
6 october, thu
thu623:30+24ssw398899 0.1 1010501
02:30+24s2988100 0.0 1008472
05:30+23ssw399079 0.0 1008508
08:30+26ssw4777100 0.2 1010842
11:30+30sw475995 0.4 10091498
14:30+28sw476999 0.1 10061098
17:30+26ssw3778100 0.2 1007814
20:30+24ssw2888100 0.1 1010465
7 october, fri
fri723:30+24s2889100 0.1 1009420
02:30+23s2891100 0.1 1007340
05:30+23s2891100 0.1 1008347
08:30+27ssw367468 0.1 1010908
11:30+31wsw465386 0.1 10081718
14:30+30wsw465563 0.1 10061753
17:30+26sw367693 0.2 1008819
20:30+24ssw2791100 0.8 1010309
8 october, sat
sat823:30+23s279292 1.1 1010282
02:30+23s2993100 0.2 1008400
05:30+23s289368 0.3 1009354
08:30+27sw357499 0.3 1010920
11:30+28wsw3467100 1.3 10091230
14:30+28sw346494 0.6 10071236
17:30+26sw2673100 0.7 1008598
20:30+24ssw16916 0.1 1010236
9 october, sun
sun923:30+23s26945 0.1 1010219
02:30+23s279333 0.0 1008247
05:30+22s279244 0.0 1009204
08:30+27ssw3674100 0.1 1011896
11:30+31sw355344 0.2 10091715
14:30+31wsw454934 0.0 10071847
17:30+27sw36705 0.0 1008662
20:30+24ssw278822 0.0 1011378
10 october, mon
mon1023:30+24s279253 0.0 1011308
02:30+23s289236 0.0 1009397
05:30+23s289236 0.0 1010344
08:30+27ssw357147 0.0 1011913
11:30+31sw3552100 0.1 10101768
14:30+30wsw3456100 0.0 10071413
17:30+27sw36715 0.0 1008669
20:30+25ssw28885 0.0 1011466